Other Surface Observations
Issued by NWS

Home | Current Version | Previous Version | Text Only | Print | Product List | Glossary On
Versions: 1 2 3 4 5 6 7 8 9 10 11 12 13 14 15 16 17 18 19 20 21 22 23 24 25 26 27 28 29 30 31 32 33 34 35 36 37 38 39 40 41 42 43 44 45 46 47 48 49 50
000
SXUS52 KTAE 211418
OSOTAE
OSOTAE
North Florida/South Alabama/Southwest Georgia Weather Roundup
National Weather Service Tallahassee Florida
1000 AM EDT SUN SEP 21 2014

Note: "fair" indicates few or no clouds below 12,000 feet with no
significant weather and/or obstructions to visibility.

!FLZ017-115-028-034-025-211500
...North Florida...

CITY           SKY/WX    TMP DP  RH WIND       PRES   REMARKS
TALLAHASSEE    MOSUNNY   76  65  68 E5        30.05R
APALACHICOLA   SUNNY     80  69  69 E8        30.04R
PERRY          SUNNY     73  61  64 CALM      30.05S
CROSS CITY       N/A     77  66  68 NE5       30.04R
HOMERVILLE     FAIR      75  64  69 CALM      30.05S
JACKSONVILLE   MOSUNNY   74  66  76 NW3       30.03R
$$

!FLZ112-006-005-002-011-211500
...Florida Panhandle...

CITY           SKY/WX    TMP DP  RH WIND       PRES   REMARKS
MARIANNA       SUNNY     75  70  84 E3        30.05R
BONIFAY        FAIR      75  68  78 MISG      30.06R
PANAMA CITY NW FAIR      76  66  71 NE7       30.04R
TYNDALL AFB    SUNNY     75  69  80 VRB6      30.05R
TYND DRONE APT FAIR      75  69  81 MISG      30.03R
DE FUNIAK SPR  FAIR      74  66  76 E3        30.06R
EGLIN AFB      MOSUNNY   77  66  70 E8        30.04R
DESTIN         SUNNY     78  68  71 E7        30.04R
HURLBURT       SUNNY     78  66  67 E10       30.03R
CRESTVIEW      SUNNY     75  69  81 NE5       30.06R
PENSACOLA      SUNNY     76  68  76 NE7       30.03R
$$

!ALZ063-066-211500
...South Alabama...

CITY           SKY/WX    TMP DP  RH WIND       PRES   REMARKS
DOTHAN         SUNNY     76  67  73 CALM      30.10R
OZARK CAIRNS   SUNNY     74  65  74 VRB2      30.06R
FT RUCKER HELI SUNNY     74  67  78 CALM      30.05S
RUCKER HELI 3  FAIR      76  68  77 VRB2      30.09R
RUCKER HELI 2  FAIR      76  65  68 CALM      30.06R
FLORALA APT    SUNNY     77  68  73 NE3       30.07S
ANDALUSIA      SUNNY     79  67  66 E3        30.06S
TROY           SUNNY     74  67  78 CALM      30.08R
EUFALA         FAIR      77  68  73 CALM      30.06S
MOBILE         MOSUNNY   76  68  76 NE6       30.05R
$$

!GAZ120>161-211500
...Southwest and South Central Georgia...

CITY           SKY/WX    TMP DP  RH WIND       PRES   REMARKS
THOMASVILLE    FAIR      75  64  69 CALM      30.07R
BAINBRIDGE     SUNNY     77  70  78 CALM      30.06R
MOODY AFB      SUNNY     74  64  70 VRB2      30.05R
VALDOSTA       SUNNY     76  63  64 N5        30.06R
MOULTRIE       SUNNY     75  64  69 CALM      30.06R
BLAKELY        SUNNY     75  68  78 CALM        N/A
ALBANY         SUNNY     75  67  76 CALM      30.07S
TIFTON         FAIR      74  61  63 CALM      30.05R
FITZGERALD     FAIR      77  64  62 NW3       30.07S
CORDELE        FAIR      73  66  76 CALM      30.07S
AMERICUS       FAIR      73  63  68 W7        30.08S
$$

!GMZ750-755-770-775-211500
...Coastal and Buoy Obs...

STATION/POSITION TIME  TEMP    WIND        PRES    VSBY  WAVE
                       AIR SEA DIR/SP/G                  HT/PER
                 (UTC) (F)     (DEG/KT/KT) (MB)    (MI)  (FT/S)
KEATON BEACH     1400   74      80/  5/  6 1017.6R
CEDAR KEY        1400   75      70/ 10/ 11 1017.5R
C TOWER          1400   78      80/ 13/ 14 1016.9R
APALACHICOLA BUO 1400   80 84   70/ 14/ 16 1015.9R         3/ 5
PANAMA CITY BUOY 1320   81 84   80/ 16/ 17 1015.4F         4/ 5
MOBILE BUOY      1318   82 84   80/ 16/ 17 1015.6S         3/ 5
ORANGE BCH AL BU 1400   81 85   90/ 14/ 16 1016.2R         3/ 5
$$



USA.gov is the U.S. government's official web portal to all federal, state and local government web resources and services.